Defiance, OH

9:06 AM EST on January 17, 2017 (GMT -0500)
Defiance Memorial

Weather History for KDFI - October, 2012

Change the Weather History Date:

Wednesday, October 10, 2012

  Actual Average Record
Temperature  
Mean Temperature 44 °F -  
Max Temperature 52 °F 63 °F 88 °F (2010)
Min Temperature 36 °F 41 °F 29 °F (1989)
Degree Days  
Heating Degree Days 22    
Moisture  
Dew Point 37 °F    
Average Humidity 70    
Maximum Humidity 93    
Minimum Humidity 44    
Precipitation  
Precipitation 0.02 in - - ()
Sea Level Pressure  
Sea Level Pressure 30.00 in    
Wind  
Wind Speed 8 mph (West)    
Max Wind Speed 13 mph    
Max Gust Speed 24 mph    
Visibility 10 miles    
Events Rain    
Averages and records for this station are not official NWS values.
T = Trace of Precipitation, MM = Missing Value Source: NWS Daily Summary

Daily Weather History Graph

Daily Weather History Graph

Search for Another Location

Airport or City:

Trip Planner

Search our weather history database for the weather conditions in past years. The results will help you decide how hot, cold, wet, or windy it might be!

Date:

Astronomy

Oct. 10, 2012 Rise Set
Actual Time 7:44 AM EDT 7:03 PM EDT
Civil Twilight 7:16 AM EDT 7:31 PM EDT
Nautical Twilight 6:44 AM EDT 8:03 PM EDT
Astronomical Twilight 6:12 AM EDT 8:35 PM EDT
Moon 2:16 AM EDT (10/10) 4:08 PM EDT (10/10)
Length of Visible Light 12h 14m
Length of Day
11h 19m
Waning Crescent, 27% of the Moon is Illuminated
Oct 10
Waning Crescent
Oct 15
New
Oct 21
First Quarter
Oct 29
Full
Nov 6
Last Quarter

Hourly Weather History & Observations

Time (EDT) Temp. Windchill Dew Point Humidity Pressure Visibility Wind Dir Wind Speed Gust Speed Precip Events Conditions
12:53 AM 50.0 °F - 39.0 °F 66% 29.87 in 10.0 mi SSW 11.5 mph - N/A   Partly Cloudy
1:53 AM 51.1 °F - 39.0 °F 63% 29.86 in 10.0 mi SSW 11.5 mph - N/A   Mostly Cloudy
2:53 AM 51.1 °F - 39.9 °F 66% 29.85 in 10.0 mi SW 11.5 mph 17.3 mph N/A   Overcast
3:53 AM 50.0 °F - 43.0 °F 77% 29.86 in 10.0 mi WNW 9.2 mph 16.1 mph 0.00 in Rain Light Rain
4:02 AM 50.0 °F - 44.6 °F 82% 29.86 in 10.0 mi NW 9.2 mph - 0.00 in Rain Light Rain
4:10 AM 48.2 °F - 42.8 °F 82% 29.86 in 10.0 mi NNW 12.7 mph 21.9 mph 0.01 in Rain Light Rain
4:53 AM 46.0 °F 43.1 °F 43.0 °F 89% 29.88 in 10.0 mi NW 5.8 mph - 0.01 in   Overcast
5:10 AM 46.4 °F 44.3 °F 42.8 °F 87% 29.88 in 10.0 mi Variable 4.6 mph - N/A   Overcast
5:21 AM 46.4 °F 44.3 °F 42.8 °F 87% 29.88 in 10.0 mi WNW 4.6 mph - N/A   Overcast
5:53 AM 45.0 °F - 42.1 °F 90% 29.90 in 10.0 mi Calm Calm - 0.00 in Rain Light Rain
6:53 AM 45.0 °F 43.5 °F 42.1 °F 90% 29.92 in 10.0 mi Variable 3.5 mph - 0.01 in   Overcast
7:08 AM 44.6 °F 43.1 °F 42.8 °F 93% 29.92 in 10.0 mi Variable 3.5 mph - N/A   Overcast
7:44 AM 44.6 °F 41.4 °F 41.0 °F 87% 29.93 in 10.0 mi Variable 5.8 mph - N/A   Partly Cloudy
7:53 AM 44.1 °F 42.5 °F 39.9 °F 85% 29.95 in 10.0 mi WSW 3.5 mph - N/A   Scattered Clouds
8:53 AM 44.1 °F 40.8 °F 39.9 °F 85% 29.97 in 10.0 mi Variable 5.8 mph - N/A   Clear
9:45 AM 44.6 °F 39.2 °F 39.2 °F 81% 29.98 in 10.0 mi West 10.4 mph 18.4 mph N/A   Mostly Cloudy
9:53 AM 46.0 °F 42.5 °F 39.9 °F 79% 30.00 in 10.0 mi Variable 6.9 mph 19.6 mph N/A   Mostly Cloudy
10:17 AM 46.4 °F 41.5 °F 39.2 °F 76% 29.99 in 10.0 mi West 10.4 mph 16.1 mph N/A   Mostly Cloudy
10:25 AM 48.2 °F - 39.2 °F 71% 29.99 in 10.0 mi Variable 5.8 mph 16.1 mph N/A   Scattered Clouds
10:35 AM 48.2 °F - 39.2 °F 71% 30.00 in 10.0 mi Variable 6.9 mph - N/A   Mostly Cloudy
10:53 AM 48.0 °F - 39.0 °F 71% 30.01 in 10.0 mi WSW 10.4 mph 18.4 mph N/A   Mostly Cloudy
11:18 AM 48.2 °F - 37.4 °F 66% 30.00 in 10.0 mi West 9.2 mph 16.1 mph N/A   Mostly Cloudy
11:53 AM 50.0 °F - 36.0 °F 59% 30.01 in 10.0 mi West 8.1 mph 17.3 mph N/A   Mostly Cloudy
12:53 PM 51.1 °F - 34.0 °F 52% 30.03 in 10.0 mi Variable 6.9 mph 18.4 mph N/A   Mostly Cloudy
1:53 PM 51.1 °F - 32.0 °F 48% 30.03 in 10.0 mi WSW 11.5 mph 23.0 mph N/A   Mostly Cloudy
2:53 PM 48.9 °F - 32.0 °F 52% 30.04 in 10.0 mi West 10.4 mph 24.2 mph N/A   Overcast
3:53 PM 48.9 °F - 30.0 °F 48% 30.07 in 10.0 mi West 9.2 mph - N/A   Overcast
4:53 PM 48.0 °F - 27.0 °F 44% 30.09 in 10.0 mi WNW 8.1 mph 19.6 mph N/A   Overcast
5:53 PM 46.9 °F - 28.0 °F 48% 30.12 in 10.0 mi Variable 4.6 mph 19.6 mph N/A   Mostly Cloudy
6:53 PM 46.9 °F - 26.1 °F 44% 30.14 in 10.0 mi WNW 8.1 mph - N/A   Mostly Cloudy
7:53 PM 46.0 °F 44.8 °F 28.0 °F 50% 30.17 in 10.0 mi Variable 3.5 mph - N/A   Overcast
8:53 PM 43.0 °F - 28.0 °F 56% 30.18 in 10.0 mi Calm Calm - N/A   Clear
9:53 PM 37.9 °F - 28.0 °F 68% 30.20 in 10.0 mi Calm Calm - N/A   Clear
10:53 PM 36.0 °F 33.3 °F 28.0 °F 73% 30.22 in 10.0 mi SW 3.5 mph - N/A   Clear
11:53 PM 36.0 °F 33.3 °F 27.0 °F 70% 30.22 in 10.0 mi SSW 3.5 mph - N/A   Clear